Temp
89 92 84 74 78 74 80 88 89 87 83 81 82 82 82 82 83 82 81 82 84 79 79 77 83 83 84 85 84 86 85 84 82
89 91 91 89 73 72 72 83 90 87 83 83 83 85 83 82 83 83 84 83 85 87 79 82 82 83 84 84 86 86 83 80 82
88 89 89 91 78 72 74 77 93 91 86 84 85 86 85 85 84 84 84 85 80 82 80 78 72 74 79 87 83 83 86 83 82
86 87 89 89 90 83 74 73 73 88 88 87 87 87 85 85 85 85 85 85 83 80 84 75 74 73 74 86 84 85 83 82 82
86 87 87 88 88 89 90 78 73 72 73 89 89 88 84 86 86 86 86 84 85 85 83 81 78 77 80 84 85 84 82 81 84
85 86 85 86 86 86 86 85 79 73 72 72 84 89 89 87 87 87 87 85 86 85 83 83 86 83 82 82 84 83 82 82 83
86 85 85 84 84 84 84 84 83 75 73 71 74 73 89 86 87 88 88 86 85 86 84 84 83 84 83 83 84 84 84 82 82
86 85 85 85 82 81 81 82 82 83 82 75 74 73 73 73 80 87 85 83 82 85 85 85 84 84 83 83 85 87 84 84 83
84 84 86 86 85 80 78 78 78 79 78 77 80 81 79 74 74 76 85 84 83 83 83 83 83 83 83 83 88 80 76 82 83
84 85 86 85 86 84 83 78 79 78 78 78 76 77 81 82 81 82 84 83 83 82 82 82 82 82 82 82 83 75 71 76 85
86 86 85 84 86 84 82 81 80 81 80 78 77 75 75 78 78 80 81 82 81 80 80 81 80 81 82 81 82 67 68 72 82
88 86 86 85 85 83 82 82 80 77 79 78 78 77 75 72 77 77 75 76 77 78 79 78 79 80 80 80 80 62 63 69 80
89 88 87 84 84 84 82 80 80 77 76 76 76 78 80 79 74 73 75 75 73 76 77 76 77 78 79 75 79 62 62 65 79
89 87 86 86 85 83 82 84 82 78 75 74 75 80 79 77 74 73 73 74 74 75 75 76 75 75 74 77 75 69 61 60 72
86 85 84 86 84 83 82 81 79 77 74 76 78 78 74 72 70 71 71 69 68 70 71 74 70 69 68 69 69 62 60 60 61
85 85 84 87 85 82 82 80 77 76 74 76 76 75 74 71 70 69 68 68 65 64 65 68 68 67 65 63 62 63 57 58 59
84 85 84 86 84 83 80 80 78 76 76 75 73 73 71 71 69 67 66 65 65 65 63 61 61 60 60 60 61 61 61 60 60
84 84 84 85 83 82 81 80 78 77 74 74 72 70 69 71 70 68 60 54 53 60 55 56 62 60 59 58 56 54 53 56 59
85 84 84 82 82 82 81 81 79 74 72 70 69 66 65 65 69 68 68 62 55 48 47 46 46 49 55 53 50 48 47 47 48
78 84 84 81 81 81 81 80 77 76 71 72 68 65 62 62 63 62 62 62 60 57 51 46 44 44 46 48 47 46 46 46 47
MSLP
1004.00 1004.05 1005.40 1006.34 1008.46 1008.68 1007.82 1007.37 1007.89 1008.94 1009.88 1010.59 1011.45 1012.10 1012.68 1013.46 1014.21 1014.47 1014.77 1014.80 1014.74 1014.90 1014.73 1014.78 1014.76 1014.86 1015.24 1015.52 1015.86 1015.60 1015.76 1016.06 1016.03
1002.93 1003.22 1004.01 1005.05 1007.33 1009.04 1009.94 1007.96 1007.47 1008.20 1009.04 1009.68 1010.37 1011.09 1011.91 1012.55 1013.27 1013.79 1013.95 1014.12 1014.16 1014.21 1014.38 1014.09 1014.80 1015.06 1014.51 1014.61 1015.16 1015.39 1015.79 1016.17 1016.13
1002.67 1003.63 1004.51 1005.00 1007.42 1007.99 1009.31 1008.63 1007.07 1007.67 1008.72 1009.20 1009.55 1010.04 1010.76 1011.45 1012.01 1012.72 1013.15 1013.44 1013.89 1013.97 1014.37 1014.97 1015.42 1014.99 1015.21 1014.47 1014.95 1015.38 1015.63 1015.85 1016.03
1003.05 1003.78 1004.23 1004.76 1005.63 1007.26 1007.91 1008.09 1009.18 1007.21 1008.30 1009.38 1009.65 1009.72 1010.02 1010.33 1010.95 1011.64 1012.43 1012.84 1013.43 1014.01 1013.87 1013.38 1015.26 1014.98 1013.99 1014.55 1014.99 1015.34 1015.66 1015.89 1016.34
1003.46 1004.15 1004.65 1004.86 1005.15 1005.89 1006.14 1007.20 1008.20 1008.84 1010.05 1008.54 1008.78 1008.96 1009.59 1009.68 1010.06 1010.60 1011.36 1012.13 1012.76 1013.42 1013.55 1013.78 1013.97 1014.30 1014.61 1014.99 1014.98 1015.20 1015.58 1015.85 1015.68
1003.95 1004.42 1004.97 1005.19 1005.41 1006.07 1006.84 1007.31 1007.81 1008.97 1008.47 1009.94 1008.70 1008.21 1008.93 1009.58 1009.68 1010.07 1010.35 1011.11 1011.87 1012.69 1013.34 1013.71 1013.90 1014.24 1014.73 1014.88 1014.78 1014.96 1015.21 1015.44 1015.39
1003.62 1004.44 1004.87 1005.39 1005.79 1006.41 1007.12 1007.62 1007.87 1008.91 1009.34 1009.31 1010.12 1009.92 1008.69 1009.35 1009.64 1009.67 1009.88 1010.21 1011.00 1011.81 1012.65 1013.31 1013.77 1013.94 1014.14 1014.29 1014.40 1014.62 1014.67 1014.89 1015.12
1003.61 1004.31 1004.91 1005.30 1005.90 1006.61 1007.41 1007.86 1007.63 1008.05 1008.59 1009.89 1009.09 1009.68 1008.71 1010.13 1010.13 1009.66 1010.44 1010.13 1010.13 1010.78 1011.68 1012.44 1013.04 1013.41 1013.70 1013.91 1014.08 1014.01 1014.08 1014.30 1014.65
1003.76 1004.44 1004.89 1005.39 1005.88 1006.68 1007.45 1008.07 1008.73 1008.84 1009.29 1009.81 1009.46 1009.48 1009.37 1010.15 1011.17 1009.75 1010.00 1010.21 1010.00 1010.01 1011.00 1011.82 1012.29 1012.66 1012.90 1013.13 1013.35 1013.39 1013.53 1013.86 1014.05
1003.63 1004.41 1005.07 1005.69 1006.04 1006.45 1007.04 1008.07 1008.63 1009.13 1008.82 1009.24 1009.96 1009.85 1009.53 1009.70 1010.17 1009.49 1009.65 1010.15 1009.92 1009.76 1010.61 1011.32 1011.78 1012.12 1012.50 1012.68 1012.81 1012.90 1013.06 1013.26 1013.46
1003.71 1004.54 1005.49 1006.09 1006.36 1006.96 1007.41 1008.10 1008.54 1008.65 1008.98 1009.15 1009.27 1009.56 1009.93 1009.35 1009.59 1009.99 1010.05 1009.73 1009.45 1009.77 1010.36 1010.90 1011.27 1011.55 1011.81 1012.19 1012.36 1012.46 1012.65 1012.90 1013.18
1003.93 1004.88 1005.71 1006.36 1006.89 1007.43 1007.86 1008.15 1008.49 1008.80 1008.81 1008.82 1008.84 1008.96 1009.13 1009.28 1009.18 1009.34 1009.35 1009.35 1009.58 1009.93 1010.38 1010.78 1010.79 1010.99 1011.28 1011.58 1011.78 1012.35 1012.57 1012.95 1013.14
1004.05 1005.14 1006.03 1006.77 1007.28 1007.71 1008.12 1008.74 1009.09 1009.33 1009.31 1009.20 1009.13 1009.08 1009.12 1009.34 1009.72 1009.68 1009.64 1009.78 1010.20 1010.27 1010.38 1010.48 1010.54 1010.57 1010.65 1010.86 1011.34 1012.00 1012.47 1013.10 1012.71
1004.46 1005.37 1006.24 1006.88 1007.34 1007.76 1008.34 1008.70 1008.97 1009.39 1009.65 1009.58 1009.65 1009.56 1009.70 1009.84 1010.24 1010.49 1010.47 1010.47 1010.60 1010.70 1010.58 1010.60 1010.65 1010.68 1011.06 1011.07 1011.11 1011.96 1012.67 1013.06 1013.10
1005.07 1005.85 1006.65 1006.91 1007.41 1007.99 1008.63 1009.30 1009.51 1009.71 1009.86 1009.96 1009.83 1010.09 1010.55 1010.95 1011.20 1011.28 1011.22 1011.32 1011.41 1011.24 1011.05 1010.85 1011.21 1011.54 1011.86 1011.96 1012.14 1012.31 1012.72 1013.06 1013.25
1005.28 1005.92 1006.45 1006.68 1007.13 1007.88 1008.46 1009.21 1009.85 1009.85 1010.10 1010.25 1010.36 1010.45 1010.80 1011.25 1011.51 1011.74 1011.86 1011.82 1011.84 1011.82 1011.66 1011.62 1011.49 1011.97 1012.35 1012.62 1012.91 1012.95 1013.06 1013.22 1013.09
1005.19 1005.82 1006.47 1006.86 1007.29 1007.65 1008.22 1008.97 1009.54 1010.09 1010.26 1010.45 1010.72 1010.81 1011.06 1011.35 1011.77 1012.11 1012.24 1012.46 1012.43 1012.57 1012.77 1012.79 1012.63 1012.74 1013.03 1013.27 1013.61 1013.69 1013.61 1013.78 1013.68
1005.01 1005.71 1006.32 1006.74 1007.24 1007.62 1008.04 1008.82 1009.44 1009.98 1010.44 1010.80 1010.94 1011.30 1011.37 1011.57 1011.89 1012.46 1013.23 1013.89 1013.98 1013.63 1013.82 1013.62 1013.45 1013.63 1013.60 1013.86 1014.06 1014.50 1014.32 1014.05 1014.22
1004.86 1005.47 1006.02 1006.62 1007.28 1007.77 1008.12 1008.67 1009.15 1010.03 1010.62 1011.13 1011.35 1011.56 1011.82 1011.92 1012.17 1012.64 1013.14 1013.93 1014.35 1014.45 1014.57 1013.96 1014.02 1014.35 1014.33 1014.65 1014.33 1014.45 1014.82 1014.91 1014.83
1004.96 1005.51 1005.91 1006.41 1007.10 1007.59 1008.05 1008.51 1009.00 1009.80 1010.51 1010.92 1011.49 1011.91 1012.19 1012.28 1012.55 1013.06 1013.43 1013.79 1014.12 1014.67 1015.22 1014.95 1015.04 1014.86 1015.06 1015.14 1015.25 1015.27 1015.21 1015.60 1015.88
Wind_Speed
16 5 20 17 11 10 5 9 21 20 19 17 15 14 13 11 9 6 6 6 6 2 2 2 6 8 7 5 6 5 4 3 2
4 3 9 10 18 15 20 18 15 19 20 18 17 15 12 12 11 11 8 8 5 5 3 7 4 6 9 8 6 6 5 4 5
7 5 3 1 19 16 11 12 12 17 20 19 18 17 14 12 12 11 8 5 3 3 3 7 7 8 6 5 5 6 3 4 5
8 4 2 2 2 18 17 12 15 6 18 16 16 15 15 15 13 13 10 7 6 9 4 3 9 7 5 3 2 5 4 4 5
8 4 2 3 3 5 3 14 6 12 22 14 16 16 14 14 14 14 14 11 9 7 6 6 9 10 8 4 5 3 5 7 5
10 4 6 5 5 3 6 9 12 11 4 14 6 15 15 15 14 14 13 15 12 9 9 8 9 9 8 7 7 6 8 6 5
12 7 4 5 2 5 4 4 3 11 10 10 11 14 10 15 14 14 14 11 13 11 11 11 10 8 9 9 8 7 6 8 8
6 8 6 6 6 1 3 4 6 3 1 14 9 19 5 7 12 10 9 8 12 12 11 11 10 9 8 10 11 9 9 7 8
8 7 6 4 6 8 4 2 4 6 5 7 6 3 7 16 11 14 9 6 9 8 7 9 10 11 11 10 9 13 13 10 7
10 9 7 4 1 2 4 3 2 3 5 5 5 6 6 5 5 6 5 6 5 8 10 9 9 10 11 11 11 10 10 14 8
10 10 7 5 4 3 3 4 5 3 2 4 5 5 7 6 5 5 6 6 6 7 7 10 10 10 10 10 9 10 10 10 6
11 10 8 6 6 4 3 2 3 4 3 2 4 4 4 5 7 5 4 5 7 8 8 10 10 9 10 11 10 8 8 9 7
13 12 9 8 7 5 7 4 1 4 7 4 4 3 3 2 2 5 5 4 6 5 8 9 8 11 12 13 12 11 11 8 7
12 11 10 7 5 5 4 2 2 2 4 7 4 2 2 4 6 7 6 7 5 4 5 5 7 9 4 6 8 8 9 5 6
11 11 9 8 5 5 5 4 2 2 3 4 5 2 5 4 3 4 2 3 3 5 6 4 2 1 2 3 4 4 7 6 7
10 10 8 6 7 7 6 5 1 3 5 3 4 2 3 4 3 3 3 3 3 2 3 3 3 2 2 0 1 2 3 4 4
9 7 6 4 4 4 5 5 4 2 3 2 3 3 3 5 4 4 6 5 5 4 4 3 3 3 3 3 3 2 2 5 7
8 7 6 4 4 3 4 4 4 3 1 3 3 1 3 3 4 6 6 6 4 4 4 2 2 2 3 4 4 2 6 5 7
5 6 7 6 4 3 2 3 4 6 6 2 2 1 2 2 4 2 5 5 6 14 9 12 12 9 5 4 7 12 10 11 13
6 4 4 7 7 5 4 2 1 8 8 5 3 3 2 2 5 3 3 3 5 5 5 14 14 11 9 8 7 9 13 12 11
Wind_Direction
192 217 177 174 182 25 231 211 155 160 164 168 183 186 190 190 195 202 210 205 242 68 126 297 182 173 185 183 206 232 218 235 282
201 82 54 133 135 149 253 171 187 166 166 170 175 188 192 188 190 207 200 217 208 174 154 244 136 195 180 177 189 215 156 243 225
136 91 22 353 151 137 233 274 208 165 167 172 174 186 184 191 189 198 224 215 138 299 94 122 127 264 315 173 180 214 216 271 242
97 29 346 210 295 172 193 138 262 182 170 174 181 188 183 187 188 189 201 214 166 205 211 66 118 215 289 256 187 236 162 267 271
86 71 47 228 200 350 249 186 148 165 255 189 186 189 186 189 185 189 187 195 205 188 177 181 198 203 230 232 233 239 189 228 267
141 149 115 355 51 13 8 2 135 139 143 302 287 182 183 189 188 190 199 186 197 188 183 195 224 189 206 224 225 221 193 212 254
156 154 157 126 334 18 4 4 7 149 145 198 306 281 193 192 192 198 201 183 186 194 183 190 209 215 201 207 208 230 224 197 214
162 144 172 169 158 191 346 349 333 343 79 173 154 250 111 337 305 198 214 191 171 184 190 191 198 212 216 204 214 217 218 209 209
165 157 154 149 160 170 182 294 308 6 0 6 341 322 198 167 229 323 216 200 183 172 191 203 198 208 215 214 220 221 210 198 210
158 161 134 132 102 7 83 132 239 258 326 343 2 337 299 300 220 220 203 225 197 192 205 209 215 214 222 225 217 232 206 199 205
147 131 125 121 134 124 134 181 220 254 266 300 314 328 328 324 320 257 226 231 223 225 217 216 218 224 220 223 229 189 192 184 195
147 134 134 112 98 73 62 347 62 164 227 272 306 297 294 330 340 325 319 274 251 245 240 232 229 226 228 228 230 189 202 180 195
132 132 136 145 131 150 159 143 250 303 312 248 248 284 293 246 350 333 313 319 289 265 259 252 243 234 228 230 230 185 205 229 217
138 125 125 112 139 89 68 59 41 220 308 308 347 324 349 0 0 328 340 348 340 282 275 279 281 260 289 267 266 180 215 219 272
139 138 128 159 147 116 114 76 327 309 244 316 306 14 109 74 354 357 355 39 23 349 323 284 199 160 78 1 8 16 207 199 237
150 156 167 166 138 146 139 138 102 303 10 324 320 292 119 91 63 62 46 46 18 10 17 344 120 161 208 200 20 28 88 157 79
155 155 152 197 150 151 136 138 138 71 298 320 308 311 153 131 94 68 51 42 26 45 34 38 51 70 67 63 41 40 105 106 96
153 161 172 185 166 196 144 126 125 142 119 340 287 313 27 144 127 102 79 53 12 30 59 7 53 114 118 120 92 27 60 76 119
155 176 171 162 174 245 172 150 150 127 115 104 297 267 42 25 107 80 121 118 80 46 34 52 59 57 83 26 87 111 94 100 105
154 212 217 167 181 201 194 162 255 128 147 152 179 156 153 81 106 132 147 137 125 114 71 69 43 60 59 62 119 111 115 117 117